Tracking 25701 objects as of 3-Jul-2022
HD Live streaming from Space Station
objects crossing your sky now

STARLINK-2374

Track STARLINK-2374 now!
10-day predictions
STARLINK-2374 is classified as:


NORAD ID: 47913
Int'l Code: 2021-021BF
Perigee: 553.2 km
Apogee: 555.6 km
Inclination: 53.1 °
Period: 95.6 minutes
Semi major axis: 6925 km
RCS: Unknown
Launch date: March 14, 2021
Source: United States (US)
Launch site: AIR FORCE EASTERN TEST RANGE (AFETR)
aabbcc
Your satellite tracking list
Your tracking list is empty




NASA's NSSDC Master Catalog

Two Line Element Set (TLE):
1 47913U 21021BF  22183.51199418  .00000546  00000-0  55555-4 0  9998
2 47913  53.0546 205.3223 0001729  54.0512 306.0638 15.06388940 73158
Source of the keplerian elements: AFSPC